Time,TemperatureF,DewpointF,PressureIn,WindDirection,WindDirectionDegrees,WindSpeedMPH,WindSpeedGustMPH,Humidity,HourlyPrecipIn,Conditions,Clouds,dailyrainin,SoftwareType,DateUTC
2013-12-05 00:01:00,19.0,9.0,30.19,NW,316,11.0,20.0,63,0.00,,,0.00,,2013-12-05 06:01:00,
2013-12-05 00:22:00,19.0,9.0,30.19,NW,316,11.0,20.0,63,0.00,,,0.00,,2013-12-05 06:22:00,
2013-12-05 00:32:00,19.0,9.0,30.19,NW,316,11.0,20.0,63,0.00,,,0.00,,2013-12-05 06:32:00,
2013-12-05 00:42:00,19.0,9.0,30.19,NW,316,11.0,20.0,63,0.00,,,0.00,,2013-12-05 06:42:00,
2013-12-05 00:52:00,19.0,9.0,30.19,NW,316,11.0,20.0,63,0.00,,,0.00,,2013-12-05 06:52:00,
2013-12-05 01:42:00,18.0,10.0,30.21,WNW,299,6.0,16.0,71,0.00,,,0.00,,2013-12-05 07:42:00,
2013-12-05 01:52:00,18.0,10.0,30.24,WNW,297,5.0,14.0,71,0.00,,,0.00,,2013-12-05 07:52:00,
2013-12-05 02:02:00,18.0,10.0,30.24,WNW,297,5.0,14.0,71,0.00,,,0.00,,2013-12-05 08:02:00,
2013-12-05 02:11:00,18.0,10.0,30.24,WNW,297,5.0,14.0,71,0.00,,,0.00,,2013-12-05 08:11:00,
2013-12-05 02:22:00,18.0,10.0,30.24,WNW,297,5.0,14.0,71,0.00,,,0.00,,2013-12-05 08:22:00,
2013-12-05 02:42:00,18.0,9.0,30.23,NW,307,9.0,12.0,66,0.00,,,0.00,,2013-12-05 08:42:00,
2013-12-05 02:53:00,18.0,8.0,30.25,NW,304,7.0,15.0,65,0.00,,,0.00,,2013-12-05 08:53:00,
2013-12-05 03:11:00,18.0,8.0,30.24,NW,309,4.0,13.0,63,0.00,,,0.00,,2013-12-05 09:11:00,
2013-12-05 03:22:00,18.0,8.0,30.24,NW,309,4.0,13.0,63,0.00,,,0.00,,2013-12-05 09:22:00,
2013-12-05 03:33:00,18.0,8.0,30.24,NW,309,4.0,13.0,63,0.00,,,0.00,,2013-12-05 09:33:00,
2013-12-05 03:43:00,18.0,8.0,30.24,NW,309,4.0,13.0,63,0.00,,,0.00,,2013-12-05 09:43:00,
2013-12-05 03:54:00,17.0,6.0,30.27,NW,308,6.0,10.0,62,0.00,,,0.00,,2013-12-05 09:54:00,
2013-12-05 04:23:00,17.0,6.0,30.25,NW,316,10.0,10.0,62,0.00,,,0.00,,2013-12-05 10:23:00,
2013-12-05 04:43:00,17.0,6.0,30.26,NW,316,10.0,10.0,62,0.00,,,0.00,,2013-12-05 10:43:00,
2013-12-05 04:53:00,17.0,6.0,30.26,NW,316,10.0,10.0,62,0.00,,,0.00,,2013-12-05 10:53:00,
2013-12-05 05:02:00,17.0,6.0,30.26,NW,316,10.0,10.0,62,0.00,,,0.00,,2013-12-05 11:02:00,
2013-12-05 05:12:00,17.0,6.0,30.26,NW,316,10.0,10.0,62,0.00,,,0.00,,2013-12-05 11:12:00,
2013-12-05 05:31:00,17.0,6.0,30.29,NW,316,10.0,10.0,62,0.00,,,0.00,,2013-12-05 11:31:00,
2013-12-05 05:53:00,17.0,6.0,30.29,NW,316,10.0,10.0,62,0.00,,,0.00,,2013-12-05 11:53:00,
2013-12-05 06:02:00,17.0,6.0,30.29,NW,316,10.0,10.0,62,0.00,,,0.00,,2013-12-05 12:02:00,
2013-12-05 06:12:00,17.0,6.0,30.29,NW,316,10.0,10.0,62,0.00,,,0.00,,2013-12-05 12:12:00,
2013-12-05 06:21:00,17.0,6.0,30.29,NW,316,10.0,10.0,62,0.00,,,0.00,,2013-12-05 12:21:00,
2013-12-05 06:31:00,17.0,6.0,30.32,NW,316,10.0,10.0,62,0.00,,,0.00,,2013-12-05 12:31:00,
2013-12-05 06:52:00,17.0,6.0,30.32,NW,316,10.0,10.0,62,0.00,,,0.00,,2013-12-05 12:52:00,
2013-12-05 07:11:00,17.0,6.0,30.32,NW,316,10.0,10.0,62,0.00,,,0.00,,2013-12-05 13:11:00,
2013-12-05 07:22:00,17.0,6.0,30.32,NW,316,10.0,10.0,62,0.00,,,0.00,,2013-12-05 13:22:00,
2013-12-05 08:22:00,17.0,6.0,30.34,NW,316,10.0,10.0,62,0.00,,,0.00,,2013-12-05 14:22:00,
2013-12-05 08:31:00,13.0,2.0,30.36,NNW,340,5.0,11.0,61,0.00,,,0.00,,2013-12-05 14:31:00,
2013-12-05 08:32:00,17.0,6.0,30.34,NW,316,10.0,10.0,62,0.00,,,0.00,,2013-12-05 14:32:00,
2013-12-05 08:52:00,13.0,2.0,30.36,NNW,340,5.0,11.0,61,0.00,,,0.00,,2013-12-05 14:52:00,
2013-12-05 09:02:00,13.0,2.0,30.36,NNW,340,5.0,11.0,61,0.00,,,0.00,,2013-12-05 15:02:00,
2013-12-05 09:11:00,13.0,2.0,30.36,NNW,340,5.0,11.0,61,0.00,,,0.00,,2013-12-05 15:11:00,
2013-12-05 09:22:00,13.0,2.0,30.36,NNW,340,5.0,11.0,61,0.00,,,0.00,,2013-12-05 15:22:00,
2013-12-05 10:23:00,14.0,2.0,30.40,NW,304,5.0,13.0,58,0.00,,,0.00,,2013-12-05 16:23:00,
2013-12-05 10:33:00,14.0,2.0,30.40,NW,304,5.0,13.0,58,0.00,,,0.00,,2013-12-05 16:33:00,
2013-12-05 10:43:00,14.0,2.0,30.40,NW,304,5.0,13.0,58,0.00,,,0.00,,2013-12-05 16:43:00,
2013-12-05 10:53:00,14.0,2.0,30.40,WNW,290,5.0,16.0,57,0.00,,,0.00,,2013-12-05 16:53:00,
2013-12-05 11:02:00,14.0,2.0,30.40,WNW,290,5.0,16.0,57,0.00,,,0.00,,2013-12-05 17:02:00,
2013-12-05 11:23:00,15.0,2.0,30.39,NW,322,2.0,15.0,56,0.00,,,0.00,,2013-12-05 17:23:00,
2013-12-05 11:42:00,15.0,2.0,30.38,NW,311,3.0,16.0,56,0.00,,,0.00,,2013-12-05 17:42:00,
2013-12-05 11:52:00,15.0,2.0,30.38,NW,311,3.0,16.0,56,0.00,,,0.00,,2013-12-05 17:52:00,
2013-12-05 12:02:00,15.0,2.0,30.38,NW,311,3.0,16.0,56,0.00,,,0.00,,2013-12-05 18:02:00,
2013-12-05 12:22:00,16.0,2.0,30.36,NW,316,10.0,14.0,53,0.00,,,0.00,,2013-12-05 18:22:00,
2013-12-05 12:52:00,16.0,2.0,30.35,NNW,332,2.0,11.0,52,0.00,,,0.00,,2013-12-05 18:52:00,
2013-12-05 13:21:00,17.0,2.0,30.31,WNW,297,9.0,15.0,50,0.00,,,0.00,,2013-12-05 19:21:00,
2013-12-05 13:42:00,17.0,1.0,30.30,NW,323,4.0,14.0,49,0.00,,,0.00,,2013-12-05 19:42:00,
2013-12-05 13:52:00,17.0,1.0,30.30,NW,323,4.0,14.0,49,0.00,,,0.00,,2013-12-05 19:52:00,
2013-12-05 14:22:00,17.0,1.0,30.31,NW,314,9.0,14.0,48,0.00,,,0.00,,2013-12-05 20:22:00,
2013-12-05 14:32:00,17.0,1.0,30.31,NW,314,9.0,14.0,48,0.00,,,0.00,,2013-12-05 20:32:00,
2013-12-05 14:52:00,17.0,1.0,30.32,NW,311,5.0,14.0,48,0.00,,,0.00,,2013-12-05 20:52:00,
2013-12-05 15:02:00,17.0,1.0,30.32,NW,311,5.0,14.0,48,0.00,,,0.00,,2013-12-05 21:02:00,
2013-12-05 15:12:00,17.0,1.0,30.32,NW,311,5.0,14.0,48,0.00,,,0.00,,2013-12-05 21:12:00,
2013-12-05 15:22:00,17.0,1.0,30.32,NW,311,5.0,14.0,48,0.00,,,0.00,,2013-12-05 21:22:00,
2013-12-05 15:44:00,17.0,1.0,30.34,WNW,298,1.0,12.0,49,0.00,,,0.00,,2013-12-05 21:44:00,
2013-12-05 15:53:00,17.0,1.0,30.34,WNW,298,1.0,12.0,49,0.00,,,0.00,,2013-12-05 21:53:00,
2013-12-05 16:23:00,18.0,2.0,30.34,NNW,334,1.0,9.0,48,0.00,,,0.00,,2013-12-05 22:23:00,
2013-12-05 16:31:00,18.0,2.0,30.35,NNW,340,2.0,7.0,48,0.00,,,0.00,,2013-12-05 22:31:00,
2013-12-05 16:52:00,18.0,2.0,30.35,NNW,340,2.0,7.0,48,0.00,,,0.00,,2013-12-05 22:52:00,
2013-12-05 17:02:00,18.0,2.0,30.35,NNW,340,2.0,7.0,48,0.00,,,0.00,,2013-12-05 23:02:00,
2013-12-05 17:12:00,18.0,2.0,30.35,NNW,340,2.0,7.0,48,0.00,,,0.00,,2013-12-05 23:12:00,
2013-12-05 17:22:00,18.0,2.0,30.35,NNW,340,2.0,7.0,48,0.00,,,0.00,,2013-12-05 23:22:00,
2013-12-05 17:53:00,17.0,0.0,30.36,NE,53,3.0,10.0,47,0.00,,,0.00,,2013-12-05 23:53:00,
2013-12-05 18:22:00,17.0,0.0,30.35,NW,308,5.0,9.0,46,0.00,,,0.00,,2013-12-06 00:22:00,
2013-12-05 18:32:00,17.0,0.0,30.35,NW,308,5.0,9.0,46,0.00,,,0.00,,2013-12-06 00:32:00,
2013-12-05 18:42:00,17.0,0.0,30.35,NW,308,5.0,9.0,46,0.00,,,0.00,,2013-12-06 00:42:00,
2013-12-05 18:52:00,17.0,0.0,30.36,NE,55,4.0,11.0,47,0.00,,,0.00,,2013-12-06 00:52:00,
2013-12-05 19:01:00,17.0,0.0,30.36,NE,55,4.0,11.0,47,0.00,,,0.00,,2013-12-06 01:01:00,
2013-12-05 19:21:00,17.0,0.0,30.36,ENE,74,5.0,9.0,47,0.00,,,0.00,,2013-12-06 01:21:00,
2013-12-05 19:32:00,17.0,0.0,30.36,ENE,74,5.0,9.0,47,0.00,,,0.00,,2013-12-06 01:32:00,
2013-12-05 19:52:00,17.0,0.0,30.37,NE,40,4.0,8.0,47,0.00,,,0.00,,2013-12-06 01:52:00,
2013-12-05 20:11:00,17.0,1.0,30.38,NNW,328,3.0,9.0,48,0.00,,,0.00,,2013-12-06 02:11:00,
2013-12-05 20:22:00,17.0,1.0,30.38,NNW,328,3.0,9.0,48,0.00,,,0.00,,2013-12-06 02:22:00,
2013-12-05 20:42:00,17.0,1.0,30.39,ENE,59,4.0,9.0,48,0.00,,,0.00,,2013-12-06 02:42:00,
2013-12-05 20:52:00,17.0,1.0,30.39,NE,49,1.0,11.0,48,0.00,,,0.00,,2013-12-06 02:52:00,
2013-12-05 21:11:00,17.0,1.0,30.39,North,351,3.0,9.0,49,0.00,,,0.00,,2013-12-06 03:11:00,
2013-12-05 21:21:00,17.0,1.0,30.39,North,351,3.0,9.0,49,0.00,,,0.00,,2013-12-06 03:21:00,
2013-12-05 21:43:00,17.0,1.0,30.41,ENE,77,4.0,8.0,49,0.00,,,0.00,,2013-12-06 03:43:00,
2013-12-05 21:53:00,17.0,1.0,30.41,ENE,77,4.0,8.0,49,0.00,,,0.00,,2013-12-06 03:53:00,
2013-12-05 22:23:00,17.0,1.0,30.43,NE,50,2.0,8.0,48,0.00,,,0.00,,2013-12-06 04:23:00,
2013-12-05 22:33:00,17.0,1.0,30.43,NE,50,2.0,8.0,48,0.00,,,0.00,,2013-12-06 04:33:00,
2013-12-05 22:53:00,17.0,1.0,30.44,NE,36,3.0,8.0,49,0.00,,,0.00,,2013-12-06 04:53:00,
2013-12-05 23:13:00,18.0,2.0,30.45,NNE,29,2.0,9.0,48,0.00,,,0.00,,2013-12-06 05:13:00,
2013-12-05 23:22:00,18.0,2.0,30.45,NNE,29,2.0,9.0,48,0.00,,,0.00,,2013-12-06 05:22:00,
2013-12-05 23:33:00,18.0,2.0,30.45,NNE,29,2.0,9.0,48,0.00,,,0.00,,2013-12-06 05:33:00,
2013-12-05 23:53:00,17.0,0.0,30.45,North,10,1.0,10.0,47,0.00,,,0.00,,2013-12-06 05:53:00,